Temp
9 9 9 9 8 8 9 9 8 9 9 9 9 9 10 10 9 10 10 11 11 14 14 15 15 14 14 14 15 18 18 18 18 18 19 15 16 16 16 16 15 16 17 16 17 16 16
9 9 8 8 8 8 8 8 8 8 8 8 8 9 10 12 10 10 10 11 12 15 15 15 15 14 14 16 18 18 18 17 18 18 17 17 15 16 16 17 17 16 16 16 16 17 17
8 8 8 8 8 8 8 8 8 8 8 8 8 9 10 12 13 13 15 15 15 15 15 15 14 14 14 15 18 17 17 18 18 19 16 18 18 18 16 17 17 17 17 16 16 16 17
8 8 8 7 7 8 8 8 7 7 7 8 8 9 10 13 14 14 15 15 15 15 15 14 14 14 14 17 17 17 17 17 18 18 19 19 19 16 18 17 16 17 15 17 18 17 16
7 7 7 7 7 7 7 7 7 7 7 7 8 9 11 13 14 14 14 14 15 14 14 14 14 14 15 16 16 17 17 17 17 18 17 17 17 15 16 15 15 14 16 16 17 16 17
7 7 7 7 7 7 7 7 7 7 7 7 7 9 12 13 14 14 14 13 13 13 13 14 14 14 15 17 16 16 17 17 16 16 16 15 12 13 12 14 16 15 15 15 16 17 17
7 7 7 7 7 7 7 7 7 7 7 7 7 8 11 13 13 13 13 13 12 12 12 14 14 15 16 16 16 16 17 17 16 15 15 14 14 14 13 14 15 15 15 16 16 17 18
6 6 7 6 7 7 7 6 6 6 7 7 7 7 9 13 13 13 12 12 14 15 15 12 13 14 15 16 16 16 17 16 16 14 13 13 14 14 14 13 15 15 15 14 14 14 15
6 6 6 6 6 6 6 6 6 6 6 6 6 7 9 12 13 12 13 14 14 14 13 14 13 14 15 16 16 14 16 15 15 13 13 13 16 13 14 13 14 13 13 13 16 15 14
6 6 6 6 6 6 6 6 6 6 6 6 6 7 8 12 11 12 12 13 13 13 12 16 15 16 16 16 15 15 16 16 15 14 12 13 14 14 14 14 14 15 13 14 14 15 15
6 6 6 6 6 6 6 6 6 6 6 6 7 8 9 12 11 11 12 13 13 13 13 16 16 17 16 16 14 15 15 16 14 14 14 15 15 14 14 14 14 15 14 13 14 13 14
6 6 6 5 6 6 6 6 6 6 6 6 9 9 9 10 10 11 12 12 13 14 13 15 15 15 15 13 14 14 14 11 14 15 14 13 14 15 15 14 14 14 14 12 10 12 13
5 5 5 5 5 5 5 5 5 5 6 6 10 11 10 10 10 11 11 11 13 13 14 13 13 13 12 11 13 12 9 8 9 13 12 12 14 14 15 15 14 14 13 13 14 12 14
5 5 5 5 5 5 5 5 5 5 5 7 11 11 11 10 11 11 12 12 15 12 11 11 12 12 11 10 10 10 10 8 8 8 9 11 13 12 12 14 15 13 13 13 14 13 14
5 5 4 4 5 5 5 5 5 5 6 10 11 11 12 10 11 11 11 11 10 10 9 10 11 12 11 10 11 8 9 10 9 7 11 10 12 10 12 12 13 13 13 13 13 12 11
4 4 4 4 4 4 4 5 5 5 8 11 11 11 11 11 11 11 10 11 9 8 8 10 12 10 10 9 10 9 8 8 9 8 8 7 10 9 9 11 11 12 10 13 11 13 12
4 4 4 4 4 4 4 4 4 6 10 11 11 10 11 11 11 9 9 9 8 8 8 9 9 8 8 8 8 8 8 6 6 7 6 6 7 9 9 6 8 8 7 7 9 8 11
4 4 4 3 4 4 3 4 4 6 11 11 9 11 11 11 9 6 6 7 8 6 5 6 6 7 7 6 6 7 6 5 5 6 6 5 4 6 5 4 5 4 4 6 8 7 6
4 4 4 4 4 3 3 3 4 6 9 8 6 6 10 10 9 6 6 5 4 5 4 5 5 5 5 4 6 6 5 4 4 5 4 6 3 2 6 6 6 2 0 1 3 3 3
3 3 3 3 3 3 3 3 3 5 8 8 5 9 5 3 3 5 5 5 5 4 4 3 4 4 4 3 3 4 4 4 3 4 6 6 2 2 3 3 2 1 -1 -1 -2 -3 -2
3 3 3 3 3 3 3 2 3 5 7 8 1 2 3 4 4 3 4 5 5 4 4 3 4 3 3 4 3 3 3 2 3 3 2 2 -1 1 2 4 2 -4 -2 -2 -3 -9 -2
2 2 3 3 3 3 3 2 3 5 7 3 2 3 0 1 2 3 3 3 4 3 3 3 3 3 3 3 3 2 2 2 2 1 1 1 -1 1 -2 -0 -1 -5 -6 -4 -4 -9 -12
2 2 2 2 2 2 2 2 2 3 6 1 0 1 2 2 2 3 1 3 3 3 2 3 2 2 2 2 2 2 2 1 2 2 1 1 -1 -4 -5 -0 -1 -4 -8 -5 -7 -9 -9
2 2 2 2 2 2 2 2 2 3 3 2 -1 -1 2 2 2 2 2 2 2 2 2 2 2 2 2 1 0 -0 -1 -1 -0 -1 1 1 -0 -3 -5 -0 -4 -8 -9 -10 -9 -12 -13
2 2 2 2 2 2 2 2 2 2 2 2 0 -0 1 1 2 2 1 0 0 -0 1 2 2 1 -0 1 2 2 1 1 -1 -1 -1 0 -1 -4 -4 -5 -7 -10 -11 -12 -12 -12 -16
2 1 1 1 1 1 2 2 2 2 2 2 1 1 0 1 -0 1 0 1 -0 -1 -0 1 1 0 1 2 3 -6 -2 2 1 -0 -1 -0 -2 -2 -8 -4 -3 -11 -11 -13 -14 -11 -17
2 1 1 1 1 1 1 1 1 1 1 2 1 1 1 -0 -1 0 -0 -0 -1 -1 -1 -0 -0 0 1 2 1 -5 -2 -1 -3 -2 -5 -4 -7 -8 -8 -8 -10 -13 -14 -15 -10 -10 -17
1 1 1 1 1 1 1 1 1 1 1 1 1 2 1 -2 -1 -1 -1 -1 -1 -2 -2 -1 -0 -0 -0 -1 -1 -2 -3 -5 -7 -8 -11 -10 -12 -11 -13 -11 -7 -16 -13 -11 -15 -20 -18
1 1 1 1 0 1 1 1 1 1 1 1 2 2 2 -1 -1 -1 -2 -2 -1 -0 -1 -2 -1 -1 -0 -1 -4 -6 -9 -11 -11 -12 -10 -10 -13 -11 -11 -10 -13 -16 -15 -22 -22 -18 -22
Height
806 802 798 795 792 789 786 784 781 779 776 774 771 769 765 762 759 757 755 754 754 754 756 759 761 763 765 767 760 753 751 755 759 763 765 770 776 780 784 786 788 791 787 786 783 783 784
806 803 799 796 792 790 787 784 782 779 777 774 770 768 764 760 757 754 752 752 751 752 754 757 760 762 765 768 755 754 754 757 759 762 765 766 772 773 781 782 786 786 785 784 781 779 780
807 803 800 797 793 789 786 784 781 778 775 773 769 766 762 758 756 752 751 750 750 751 754 756 759 761 763 760 754 755 757 759 761 762 765 765 766 770 776 781 780 782 786 784 779 779 779
807 803 799 796 793 789 786 782 779 776 773 771 767 763 760 757 754 752 750 749 749 751 753 756 759 761 761 753 753 755 757 759 762 763 763 765 766 770 773 777 783 785 790 790 778 778 779
807 803 799 795 792 788 785 781 778 775 771 767 764 761 758 755 752 750 749 748 749 751 754 757 760 760 758 753 753 754 756 757 761 763 764 765 767 776 778 787 794 797 794 795 785 779 778
807 804 799 795 791 787 784 780 776 772 768 765 761 758 755 753 751 750 749 749 750 753 756 758 759 764 754 751 751 753 756 758 761 764 767 770 779 785 791 790 795 794 796 797 791 783 780
806 803 799 795 791 787 782 778 774 770 766 762 759 755 752 750 749 749 750 752 756 758 756 752 752 752 749 750 752 754 755 757 761 768 776 777 782 783 784 784 783 788 790 789 787 779 781
807 803 799 794 790 786 781 776 772 768 763 759 755 752 749 747 746 745 747 748 746 747 750 749 750 750 749 749 754 755 755 760 763 774 777 783 782 775 776 783 784 787 789 793 786 783 785
806 802 798 794 790 785 779 774 770 765 760 756 752 748 745 743 743 744 744 744 744 745 752 749 748 749 749 750 752 756 755 759 766 775 777 780 770 773 775 782 785 788 791 790 784 784 784
805 801 797 793 788 783 778 772 767 762 757 752 748 745 742 740 745 742 743 743 744 745 763 751 749 747 747 747 755 754 754 758 766 771 779 776 770 771 774 776 780 783 778 777 783 786 788
805 801 797 792 788 782 776 770 765 759 753 748 744 742 738 738 739 741 742 742 744 746 775 749 748 744 745 751 755 757 755 755 767 769 773 769 768 771 774 771 773 773 774 780 782 788 787
806 801 797 791 787 781 775 768 762 756 749 744 741 740 738 738 739 741 741 743 746 759 772 751 748 749 750 755 756 757 760 761 764 766 770 770 766 765 766 766 769 771 776 786 795 793 792
806 802 797 791 786 780 773 766 759 752 745 740 739 739 738 739 740 740 742 744 758 761 750 758 756 754 761 766 763 765 781 790 788 774 778 774 768 765 764 767 769 771 779 788 787 796 781
806 802 797 791 785 779 772 764 756 748 741 737 737 738 738 739 738 740 742 749 750 758 762 760 759 760 768 774 775 777 784 796 797 795 793 785 777 774 772 768 768 775 778 784 781 786 779
806 802 796 792 786 779 771 762 753 744 738 735 737 738 739 737 737 740 745 756 763 764 769 766 761 761 772 774 772 787 789 790 797 802 786 794 781 783 774 775 772 775 778 775 777 785 789
808 802 797 792 786 778 771 761 750 742 737 736 737 737 739 736 738 741 751 760 772 774 773 767 760 773 774 782 776 784 793 799 795 800 799 807 795 793 787 777 777 777 787 778 787 781 784
809 804 798 793 788 780 771 761 750 741 737 737 738 739 740 737 739 747 762 767 773 777 775 770 771 779 785 784 784 791 797 809 808 805 807 810 807 795 790 812 806 800 806 808 802 808 782
812 806 800 795 789 781 772 762 751 741 736 737 738 742 739 737 750 767 773 774 776 784 783 781 784 786 789 797 797 797 803 810 813 811 812 816 826 820 823 826 819 825 827 823 807 818 826
813 809 803 797 790 781 772 764 753 741 737 738 745 748 740 737 758 775 779 785 790 789 795 791 796 798 799 806 804 804 810 818 817 814 822 816 831 848 818 823 817 841 851 846 838 839 846
816 812 805 799 794 786 777 766 756 744 738 739 747 749 754 757 772 772 781 787 792 795 799 801 803 802 803 811 813 814 815 819 820 819 813 813 833 838 837 830 837 845 858 859 864 885 871
818 814 808 803 796 787 778 768 757 745 739 741 757 775 775 779 780 782 783 788 793 797 800 802 805 807 808 811 815 821 823 824 822 822 824 828 850 839 835 827 840 871 865 867 869 904 872
821 816 810 805 800 793 785 777 765 750 744 748 764 771 780 788 788 788 791 800 796 804 803 806 807 811 812 815 818 824 823 825 828 829 831 832 851 841 856 848 852 882 885 877 878 901 915
824 820 814 809 803 796 789 781 773 763 752 760 770 772 774 789 791 788 802 801 803 803 811 809 812 816 818 819 820 822 824 827 829 831 836 835 846 869 885 850 858 876 901 884 891 903 903
827 822 818 812 807 801 796 790 784 778 773 773 777 776 778 796 794 797 801 802 807 808 810 815 815 816 819 820 824 827 830 832 834 837 834 837 844 861 881 851 882 902 903 904 902 915 918
830 825 821 816 812 807 801 797 793 788 783 779 778 780 783 798 799 803 805 810 813 814 816 815 816 817 818 820 822 827 830 832 841 842 841 840 846 869 874 880 898 909 911 913 914 916 926
833 828 824 820 815 811 806 802 798 793 789 786 785 783 786 794 810 805 809 810 815 820 821 818 818 817 817 816 815 870 854 825 836 844 846 844 850 856 894 875 874 914 912 914 918 911 926
835 831 826 822 818 814 810 806 802 798 795 792 790 788 787 800 808 807 810 812 816 819 822 822 821 819 818 819 827 862 847 840 855 856 874 866 883 893 896 898 908 917 916 917 909 910 926
837 832 828 824 820 817 813 809 805 802 799 795 795 792 791 801 809 809 809 813 815 818 824 821 822 823 824 831 835 845 852 865 877 888 905 905 916 913 924 916 898 919 915 911 920 926 923
837 833 829 826 822 818 814 810 807 804 801 798 797 796 795 799 812 813 815 815 815 815 817 821 823 826 827 832 847 859 881 889 895 913 900 905 919 912 912 908 913 916 915 923 923 923 923
Wind_Speed
19 18 18 18 18 19 20 20 20 20 19 18 17 17 16 16 14 11 8 6 7 7 6 7 7 7 4 1 7 6 11 19 21 18 17 6 5 5 6 4 5 4 4 4 6 7 5
19 18 18 18 18 19 19 19 20 20 19 18 18 17 16 16 15 11 8 4 5 6 7 7 8 8 2 3 2 3 12 18 19 17 10 9 8 5 5 3 4 5 3 5 6 5 3
17 17 18 19 19 19 19 19 20 19 19 19 19 18 18 16 15 11 7 3 2 5 8 9 9 7 2 9 1 9 15 13 18 9 5 6 10 5 5 4 1 1 4 6 2 0 4
17 17 18 19 20 20 20 20 20 21 20 20 19 19 19 17 14 10 6 3 2 5 8 9 9 5 5 2 3 11 12 8 9 6 6 10 7 5 3 4 5 3 4 3 2 1 3
18 18 19 20 20 21 21 21 21 21 21 21 21 19 18 16 13 9 6 3 4 7 9 10 6 4 6 1 5 12 11 10 10 6 6 10 4 3 4 5 4 5 3 3 6 2 2
19 20 21 21 21 21 22 22 22 22 22 22 22 20 18 15 11 5 6 9 14 11 11 6 2 1 3 2 4 11 7 15 4 4 4 5 4 3 3 4 5 5 3 3 4 2 4
19 20 21 22 22 22 22 23 23 23 23 22 22 21 18 15 10 0 12 8 3 3 3 5 4 2 1 4 6 4 8 7 4 6 4 2 3 7 8 6 3 5 3 3 2 3 2
20 21 21 22 23 23 23 24 24 24 24 23 23 21 20 15 9 4 10 3 3 3 2 4 2 4 4 3 3 1 9 4 4 4 5 4 7 5 5 4 4 2 1 5 5 2 6
19 20 21 22 23 24 24 25 25 25 25 24 23 22 20 14 5 7 7 4 3 3 2 2 4 3 4 5 2 7 5 4 4 5 5 6 3 5 6 4 5 4 5 5 8 1 2
19 21 22 23 24 25 25 26 27 27 26 25 23 20 17 7 4 7 3 7 5 4 4 2 2 2 3 3 2 1 3 4 2 6 7 4 2 4 4 5 7 3 8 6 4 3 3
21 23 23 24 25 26 27 27 28 28 27 26 21 15 13 8 4 4 4 6 7 3 1 1 2 2 2 4 6 5 2 2 6 5 5 4 4 3 3 5 8 6 4 6 4 4 1
22 23 24 25 26 27 29 29 30 29 28 25 9 7 3 5 4 4 5 8 3 4 5 2 2 1 4 5 3 2 5 8 2 3 1 5 2 2 4 2 4 5 5 5 4 3 2
23 25 26 26 27 29 31 32 32 31 28 22 3 4 3 3 3 3 6 3 4 3 3 3 3 3 5 5 4 5 5 7 3 2 3 4 1 1 1 2 1 3 5 2 1 0 5
25 25 26 28 29 31 33 34 35 33 27 16 5 3 5 4 4 5 4 3 4 2 2 2 3 3 5 5 4 4 4 3 5 4 3 2 1 5 8 2 1 4 6 4 5 3 2
25 26 28 28 29 32 34 36 37 35 24 1 4 1 5 10 5 8 3 3 2 1 1 2 2 4 2 3 3 5 4 3 5 5 3 1 3 5 2 4 3 2 3 1 1 1 1
26 27 29 31 32 32 35 38 39 34 16 1 2 2 6 5 6 4 4 4 3 2 3 1 3 1 3 4 3 4 2 3 3 5 1 1 3 2 5 3 4 3 3 1 2 3 4
26 28 30 31 33 34 37 40 41 33 9 2 1 2 11 5 4 5 4 4 4 3 1 4 2 3 3 2 3 3 3 4 5 3 6 2 1 5 3 7 3 5 4 4 1 2 3
27 29 30 32 34 37 39 42 43 31 9 1 2 2 13 4 4 2 3 3 3 5 8 6 4 5 3 3 4 3 4 4 6 2 3 1 3 1 3 3 8 5 3 3 2 2 1
27 28 30 32 35 39 42 43 45 30 11 2 3 1 8 1 4 3 3 4 5 6 5 5 4 5 3 3 3 2 4 2 7 3 3 2 1 2 1 3 1 6 3 2 1 2 3
27 29 30 33 35 37 41 45 50 33 8 3 3 2 4 5 2 5 5 3 3 5 4 4 3 3 4 4 6 3 3 1 4 3 4 1 2 4 5 2 3 3 2 2 3 3 3
27 28 30 32 35 39 42 47 51 40 11 3 4 1 0 3 5 5 4 2 3 3 3 5 4 5 3 3 3 3 3 4 4 7 4 3 3 2 2 1 4 2 2 1 4 3 4
28 29 30 32 34 36 38 44 49 49 13 11 3 3 4 2 2 4 6 3 3 3 4 3 5 2 4 3 3 3 2 1 1 5 3 4 2 2 2 7 7 4 3 4 3 2 3
28 28 29 30 33 35 38 42 43 45 26 9 6 3 3 5 2 3 2 2 3 5 5 4 4 4 3 2 3 1 1 1 3 2 1 2 2 3 3 3 5 2 2 1 2 2 1
27 28 30 30 31 34 34 36 36 36 35 11 6 3 3 2 3 3 3 4 4 2 5 2 4 3 2 3 4 6 6 6 6 6 3 3 3 3 3 1 1 1 2 2 2 3 3
27 27 28 29 29 31 32 31 32 30 29 30 19 3 3 4 5 5 5 5 4 5 3 3 2 1 1 2 3 3 1 2 4 7 5 3 2 3 3 2 0 3 3 1 3 2 2
25 26 26 27 27 29 29 29 30 27 27 16 27 10 4 5 2 1 3 2 3 3 2 2 2 2 1 1 2 3 2 1 2 3 6 5 5 3 2 3 4 4 2 1 3 3 3
25 25 26 26 26 27 26 27 27 26 23 17 14 18 5 4 2 2 2 3 3 2 3 1 2 4 2 2 2 2 1 1 2 2 3 3 3 3 0 2 2 3 3 1 4 3 2
24 25 26 25 25 25 24 24 23 23 19 18 9 18 4 3 2 5 4 3 2 2 3 1 2 3 3 3 2 0 2 2 4 2 1 2 2 1 2 3 4 2 1 3 2 2 2
24 25 25 25 24 25 24 24 23 21 18 14 4 10 10 8 3 13 17 11 5 2 4 2 3 2 1 3 2 3 3 3 4 1 4 1 2 2 3 2 3 0 1 2 3 3 3
Wind_Direction
8 7 8 9 6 6 4 2 1 357 356 353 350 347 351 351 349 342 320 276 243 223 201 196 184 170 162 170 254 344 130 157 167 164 157 140 138 139 163 169 129 176 250 201 252 278 250
3 3 5 5 6 4 2 360 357 354 351 348 347 344 347 350 353 349 337 293 236 211 187 183 173 167 183 230 294 171 162 162 169 173 161 153 174 173 122 151 170 191 228 264 265 240 226
360 3 2 2 1 1 359 356 351 350 348 344 343 343 344 349 352 353 348 330 249 198 178 174 168 164 145 239 74 163 158 164 175 184 153 179 158 128 135 137 251 179 313 317 279 188 210
3 2 2 359 358 356 354 351 349 346 344 341 340 341 340 344 349 354 355 327 231 178 168 164 164 168 238 236 231 175 174 148 172 153 184 164 143 106 101 124 27 24 49 347 309 136 355
2 360 359 358 356 352 351 348 346 344 341 339 337 336 336 340 345 354 359 55 124 142 150 152 152 166 265 198 161 181 173 149 140 125 88 131 88 99 55 98 15 3 230 206 324 20 106
1 359 357 356 353 351 348 346 343 342 339 336 334 331 331 333 338 4 74 100 105 118 127 129 87 41 250 197 153 157 162 142 123 112 54 55 55 95 53 112 223 192 215 232 255 349 42
0 357 356 353 352 350 348 346 343 340 336 333 331 329 328 326 325 138 133 124 59 30 216 188 194 231 77 100 123 157 151 110 94 64 143 3 135 213 188 195 132 128 174 245 231 229 20
358 357 355 355 352 349 348 345 342 339 335 332 329 327 325 319 313 233 182 175 194 155 296 215 254 287 249 195 102 120 165 121 133 160 126 48 242 195 151 168 180 151 234 261 278 237 156
0 359 355 353 350 348 347 344 341 338 334 331 328 326 322 318 290 165 196 193 167 139 110 258 188 183 208 160 127 191 141 136 125 134 179 166 204 95 137 146 163 206 189 213 224 48 244
4 360 355 352 350 348 346 344 340 337 333 329 327 325 322 319 172 170 197 174 162 148 70 212 215 199 126 144 73 26 161 134 70 181 159 231 265 162 181 197 156 250 208 199 152 113 222
4 359 354 352 350 349 346 344 340 336 332 329 326 329 329 209 146 164 147 161 154 107 23 132 147 151 96 126 142 5 55 57 153 168 128 245 161 147 164 215 162 220 129 165 152 172 84
6 2 0 358 354 351 349 345 341 337 333 329 324 346 16 126 134 136 147 150 138 59 247 93 51 76 91 20 49 70 43 34 48 145 348 247 298 255 215 135 178 138 84 50 54 108 251
13 5 4 1 356 356 352 348 344 339 334 328 264 47 69 115 154 156 157 112 67 159 342 8 30 38 82 13 47 50 49 33 49 126 0 322 248 308 55 126 54 94 71 324 316 167 233
8 3 0 359 359 356 353 350 346 342 337 329 175 97 48 0 237 170 153 66 186 93 51 330 37 72 82 5 37 39 91 69 27 25 79 36 304 3 333 36 206 173 162 172 238 206 235
12 9 7 1 360 358 354 352 350 347 345 331 169 99 35 351 147 161 85 72 101 193 278 358 82 102 63 8 98 88 62 94 42 16 101 42 266 329 25 335 10 150 169 193 175 85 110
13 11 9 5 2 0 357 355 353 351 354 116 175 81 20 22 138 121 77 99 103 28 335 219 112 340 132 352 83 80 115 343 104 45 317 152 304 73 296 338 24 60 9 225 15 262 247
14 11 10 8 4 3 1 358 357 355 6 143 307 69 1 114 111 54 100 93 116 44 8 26 117 95 66 106 58 61 94 24 4 21 53 30 98 302 5 17 334 348 23 17 95 48 252
12 14 11 9 7 5 4 2 0 357 8 109 82 74 357 146 57 40 68 49 37 1 12 40 76 66 75 45 67 91 114 49 337 352 71 29 104 225 83 328 75 66 61 64 152 277 10
15 11 12 9 8 7 5 6 3 1 10 15 88 340 359 58 114 98 86 73 60 26 31 32 63 39 36 80 98 61 84 120 24 51 147 144 159 64 166 269 101 62 5 9 93 89 225
18 13 13 12 9 9 7 7 6 7 20 84 79 65 359 43 21 104 117 71 100 37 62 53 72 66 75 58 24 114 94 76 360 5 30 136 109 161 192 164 118 139 83 50 104 120 224
15 13 14 12 10 10 9 10 9 14 29 76 32 95 198 31 26 73 77 73 99 70 67 33 58 60 79 99 70 83 53 6 45 358 45 81 140 91 185 250 93 97 63 89 179 198 167
17 15 15 13 12 13 13 15 13 17 36 73 89 109 33 67 38 53 18 46 102 107 32 30 96 82 44 94 80 150 109 52 42 1 58 2 113 91 328 54 104 96 16 89 90 126 88
18 16 15 14 15 14 14 16 18 19 36 70 29 69 100 4 37 72 13 121 95 114 27 47 124 104 96 100 66 27 177 89 57 62 84 73 99 71 278 136 139 40 287 28 124 77 82
19 17 16 17 17 15 15 18 19 22 32 57 35 29 70 49 61 75 105 82 91 73 124 110 98 106 129 57 85 66 63 79 82 355 181 134 113 102 204 48 346 156 33 49 106 74 20
16 17 17 15 15 15 16 16 17 21 22 37 33 36 74 99 98 85 84 103 81 50 71 98 55 92 46 142 120 114 67 79 39 33 65 57 119 84 121 191 325 342 307 79 111 286 236
15 14 14 13 13 13 13 14 15 19 18 28 28 26 74 123 360 51 103 94 122 111 59 58 7 327 103 88 107 125 154 146 123 105 40 58 41 109 78 130 235 224 282 168 127 296 258
11 10 9 10 9 9 9 9 10 11 13 22 26 21 70 97 17 44 111 138 123 107 109 104 5 23 21 61 80 113 123 309 119 87 338 10 13 115 107 204 311 248 270 162 83 240 257
7 6 5 5 4 4 3 3 4 6 6 12 28 24 63 87 43 26 38 100 88 86 122 218 85 7 47 72 111 125 94 85 84 98 128 98 76 72 69 57 289 208 15 140 200 277 237
2 1 1 359 357 357 355 357 357 355 356 360 19 25 47 79 87 95 71 58 50 47 123 40 117 84 71 102 53 86 69 50 151 122 25 344 174 196 173 213 217 228 149 185 155 194 261